This demonstration page uses our WeatherBlox Daily Observations layout. Learn more.

Left ArrowRight Arrow

39.08367, -84.50855

Hourly Observations for March 6, 2018

Temp ( °F °C ) Dew Point ( °F °C ) Humidity (%) Winds ( mph kmh ) Pressure ( in mb ) Visibility ( mi km ) Precip ( " mm )
12:53 am 00:53 Cloudy with Light Rain 43 6.1 25 -3.9 49 49 E 3 6 29.89 1012 10 16 N/A
1:53 am 01:53 Cloudy 43 6.1 28 -2.2 56 56 NE 5 7 29.87 1012 10 16 N/A
2:39 am 02:39 Cloudy 42 5.6 30 -1.1 62 62 N 3 6 29.88 1012 10 16 N/A
2:53 am 02:53 Cloudy 42 5.6 31 -0.6 65 65 N N/A 29.84 1011 10 16 N/A
3:53 am 03:53 Cloudy 42 5.6 28 -2.2 58 58 NNE 3 6 29.84 1010 10 16 N/A
4:53 am 04:53 Cloudy 42 5.6 29 -1.7 60 60 SSW 3 6 29.85 1011 10 16 N/A
5:40 am 05:40 Mostly Cloudy 39 3.9 33 0.6 79 79 SW 7 11 29.85 1011 10 16 N/A
5:53 am 05:53 Partly Cloudy 40 4.4 32 undefined 73 73 SSW 5 7 29.84 1010 10 16 N/A
6:53 am 06:53 Clear 37 2.8 34 1.1 89 89 N N/A 29.84 1010 10 16 N/A
7:53 am 07:53 Sunny 37 2.8 35 1.7 93 93 S 5 7 29.84 1011 10 16 N/A
8:53 am 08:53 Sunny 44 6.7 39 3.9 83 83 S 7 11 29.82 1010 10 16 N/A
9:53 am 09:53 Sunny 47 8.3 39 3.9 74 74 SSW 7 11 29.81 1010 10 16 N/A
10:53 am 10:53 Sunny 52 11.1 33 0.6 49 49 SW 8 13 29.79 1009 10 16 N/A
11:53 am 11:53 Sunny 55 12.8 27 -2.8 34 34 WSW 13 20 29.76 1008 10 16 N/A
12:53 pm 12:53 Sunny 57 13.9 28 -2.2 33 33 WSW 16 26 29.74 1007 10 16 N/A
1:53 pm 13:53 Sunny 58 14.4 24 -4.4 27 27 SW 17 28 29.69 1005 10 16 N/A
2:53 pm 14:53 Sunny 58 14.4 25 -3.9 28 28 SSW 15 24 29.67 1005 10 16 N/A
3:53 pm 15:53 Mostly Cloudy 56 13.3 20 -6.7 24 24 SW 21 33 29.65 1004 10 16 N/A
4:53 pm 16:53 Mostly Cloudy 56 13.3 20 -6.7 24 24 SW 18 30 29.64 1004 10 16 N/A
5:53 pm 17:53 Mostly Cloudy 55 12.8 19 -7.2 24 24 WSW 18 30 29.65 1004 10 16 N/A
6:53 pm 18:53 Cloudy 49 9.4 33 0.6 55 55 NW 21 33 29.70 1006 10 16 N/A
7:00 pm 19:00 Cloudy 48 8.9 33 0.6 56 56 WNW 18 30 29.74 1007 10 16 N/A
7:53 pm 19:53 Cloudy 44 6.7 34 1.1 68 68 NW 12 19 29.75 1007 10 16 N/A
8:53 pm 20:53 Mostly Cloudy 43 6.1 32 undefined 65 65 WNW 5 7 29.76 1008 10 16 N/A
9:53 pm 21:53 Cloudy with Light Rain 43 6.1 32 undefined 65 65 NW 13 20 29.76 1008 10 16 N/A
10:53 pm 22:53 Cloudy 42 5.6 30 -1.1 62 62 N N/A 29.74 1007 10 16 N/A
11:53 pm 23:53 Mostly Cloudy 42 5.6 33 0.6 71 71 NNW 6 9 29.74 1007 10 16 N/A

Powered by AerisWeather